Weather History for Palm Springs, CA

Change the Weather History Date:

Sunday, March 3, 2013

  Actual Average Record
Temperature  
Mean Temperature 72 °F 63 °F  
Max Temperature 84 °F 76 °F 96 °F (1934)
Min Temperature 59 °F 51 °F 32 °F (1965)
Degree Days  
Heating Degree Days 0 3  
Month to date heating degree days 0 9  
Since 1 July heating degree days 738 787  
Cooling Degree Days 7 2  
Month to date cooling degree days 16 4  
Year to date cooling degree days 28 31  
Growing Degree Days 22 (Base 50)    
Moisture  
Dew Point 31 °F    
Average Humidity 23    
Maximum Humidity 32    
Minimum Humidity 13    
Precipitation  
Precipitation 0.00 in 0.05 in 0.40 in (1938)
Month to date precipitation 0.00 0.15  
Year to date precipitation 0.93 2.18  
Since 1 July precipitation 2.15 4.98  
Snow  
Snow 0.00 in - - ()
Month to date snowfall 0.0  
Year to date snowfall 0.0  
Since 1 July snowfall 0.0  
Snow Depth 0.00 in    
Sea Level Pressure  
Sea Level Pressure 29.90 in    
Wind  
Wind Speed 5 mph (ENE)    
Max Wind Speed 21 mph    
Max Gust Speed 25 mph    
Visibility 10 miles    
Events      
T = Trace of Precipitation, MM = Missing Value Source: NWS Daily Summary

Daily Weather History Graph

Daily Weather History Graph

Search for Another Location

Airport:

Trip Planner

Search our weather history database for the weather conditions in past years. The results will help you decide how hot, cold, wet, or windy it might be!

Date:

Astronomy

Mar. 03, 2013 Rise Set
Actual Time 6:11 AM PST 5:44 PM PST
Civil Twilight 5:46 AM PST 6:09 PM PST
Nautical Twilight 5:17 AM PST 6:38 PM PST
Astronomical Twilight 4:48 AM PST 7:07 PM PST
Moon No Moon Rise 9:49 AM PST (3/3)
Length of Visible Light 12h 22m
Length of Day
11h 32m
Waning Gibbous, 62% of the Moon is Illuminated
Mar 3
Waning Gibbous
Mar 4
Last Quarter
Mar 11
New
Mar 19
First Quarter
Mar 27
Full

Hourly Weather History & Observations

Time (PST) Temp. Dew Point Humidity Pressure Visibility Wind Dir Wind Speed Gust Speed Precip Events Conditions
12:53 AM 64.9 °F 32.0 °F 29% 30.02 in 10.0 mi Calm Calm - N/A   Clear
1:53 AM 64.0 °F 32.0 °F 30% 30.00 in 10.0 mi NNW 6.9 mph - N/A   Clear
2:53 AM 64.0 °F 32.0 °F 30% 29.99 in 10.0 mi Calm Calm - N/A   Clear
4:53 AM 63.0 °F 32.0 °F 31% 29.95 in 10.0 mi SW 6.9 mph - N/A   Clear
5:53 AM 66.0 °F 28.0 °F 24% 29.95 in 10.0 mi NW 5.8 mph - N/A   Mostly Cloudy
6:53 AM 63.0 °F 30.9 °F 30% 29.97 in 10.0 mi Calm Calm - N/A   Mostly Cloudy
7:53 AM 64.9 °F 33.1 °F 31% 29.99 in 10.0 mi Calm Calm - N/A   Mostly Cloudy
8:53 AM 69.1 °F 30.0 °F 23% 29.99 in 10.0 mi SSE 5.8 mph - N/A   Mostly Cloudy
9:53 AM 75.0 °F 27.0 °F 17% 29.97 in 10.0 mi SE 8.1 mph - N/A   Mostly Cloudy
10:53 AM 78.1 °F 28.9 °F 17% 29.96 in 10.0 mi ESE 6.9 mph - N/A   Mostly Cloudy
11:53 AM 79.0 °F 27.0 °F 15% 29.94 in 10.0 mi ESE 4.6 mph - N/A   Scattered Clouds
12:53 PM 80.1 °F 30.0 °F 16% 29.89 in 10.0 mi ESE 8.1 mph - N/A   Mostly Cloudy
1:53 PM 81.0 °F 30.0 °F 16% 29.86 in 10.0 mi NE 9.2 mph - N/A   Mostly Cloudy
2:53 PM 82.9 °F 26.1 °F 13% 29.83 in 10.0 mi East 15.0 mph - N/A   Mostly Cloudy
3:53 PM 82.9 °F 27.0 °F 13% 29.81 in 10.0 mi North 19.6 mph 25.3 mph N/A   Mostly Cloudy
4:53 PM 80.1 °F 30.9 °F 17% 29.79 in 10.0 mi ESE 13.8 mph - N/A   Clear
5:53 PM 75.9 °F 30.9 °F 19% 29.79 in 10.0 mi East 16.1 mph - N/A   Clear
6:53 PM 75.0 °F 30.9 °F 20% 29.80 in 10.0 mi East 8.1 mph - N/A   Clear
7:53 PM 73.0 °F 32.0 °F 22% 29.81 in 10.0 mi NE 13.8 mph 25.3 mph N/A   Clear
8:53 PM 73.0 °F 32.0 °F 22% 29.83 in 10.0 mi North 10.4 mph 18.4 mph N/A   Clear
9:53 PM 69.1 °F 34.0 °F 27% 29.84 in 10.0 mi NNW 20.7 mph 24.2 mph N/A   Clear
10:00 PM 68.0 °F 35.6 °F 30% 29.85 in 10.0 mi North 11.5 mph 23.0 mph N/A   Clear
10:53 PM 68.0 °F 34.0 °F 28% 29.85 in 10.0 mi NNW 11.5 mph - N/A   Clear
11:53 PM 64.9 °F 36.0 °F 34% 29.86 in 10.0 mi Calm Calm - N/A   Clear